星链-30951 (STARLINK-30951 )

导读

STARLINK-30951是美国太空探索技术公司星链计划中的一颗卫星,于2023年11月28日发射升空。作为星链星座组网的组成部分,它主要服务于全球卫星宽带互联网项目,可为偏远地区、海洋空域等提供低延迟高速网络接入,进一步扩充了星链星座的在轨服务规模,推进星链系统全球覆盖的进程。

基本信息
目录编号:
58439
目录名称:
STARLINK-30951
国际标识:
2023-183C
轨道中心:
EARTH
卫星名称:
星链-30951
卫星全名:
星链-30951 (STARLINK-30951 )
卫星状态:
在轨 (已飞行933 天)
发射日期:
2023-11-28 UTC
国别 :
美国 (US)
星等 :
--
轨道信息
数据来源 国际轨道数据 AOE轨道数据
星历时间 2026-06-17T03:42:40+0800
1天前
查看轨道信息
2026-06-16T09:00:00+0800
2天前
查看轨道信息
半长轴 6861.191km 6861.191km
偏心率 0.0001487 0.0002031
轨道倾角 43.004° 43.004°
近地点辐角 275.313° 284.604°
升交点赤经 201.918° 206.324°
平近点角 84.755° 103.026°
近地点 482.033km 481.66km
远地点 484.075km 484.448km
周期 94.267分钟 94.267分钟
每日圈数 15.275784 15.275786
详细信息
固有亮度:
5
最大亮度:
0.3
卫星平台:
Starlink v2.0 mini
覆盖范围:
全球
运营商:
太空探索技术公司
运营商所在国:
美国
制造商(研发单位):
太空探索技术公司
制造商所在国:
美国
使用方式:
暂无
卫星简介
星链(Starlink)计划是由太空探索技术公司(SpaceX)提出的一个巨型低轨卫星互联网星座项目,计划在2019年至2024年间在太空搭建由约1.2万颗卫星组成的“星链”网络,其中1584颗将部署在地球上空550千米处的近地轨道,并从2020年开始工作。该卫星仍在工作。
2D轨道图
3D轨道图
轨道高度分析图
轨道倾角分析图
轨道综合分析图
查看轨道综合分析图